CST,Max TemperatureF,Mean TemperatureF,Min TemperatureF,Max Dew PointF,MeanDew PointF,Min DewpointF,Max Humidity, Mean Humidity, Min Humidity, Max Sea Level PressureIn, Mean Sea Level PressureIn, Min Sea Level PressureIn, Max VisibilityMiles, Mean VisibilityMiles, Min VisibilityMiles, Max Wind SpeedMPH, Mean Wind SpeedMPH, Max Gust SpeedMPH,PrecipitationIn, CloudCover, Events, WindDirDegrees
2013-12-1,67,57,46,49,46,42,86,66,45,30.28,30.17,30.03,10,10,9,7,2,9,0.00,1,,66
2013-12-2,69,60,50,56,50,46,89,69,48,30.01,29.90,29.83,10,10,10,12,3,14,0.00,1,,175
2013-12-3,78,69,60,65,62,58,97,76,54,29.88,29.84,29.81,10,9,2,20,7,28,T,3,Rain,199
2013-12-4,75,70,64,72,67,63,100,91,82,30.00,29.94,29.88,10,4,0,17,6,22,0.89,6,Fog-Rain,185
2013-12-5,79,76,72,72,71,70,93,88,82,30.08,30.02,29.99,10,6,0,18,11,23,T,7,Fog-Rain,183
2013-12-6,80,71,62,72,70,59,93,86,79,30.13,30.06,30.00,10,7,2,21,12,25,0.05,8,Rain,187
2013-12-7,62,55,47,59,46,43,93,87,80,30.28,30.21,30.12,10,8,2,18,12,29,0.00,8,,1
2013-12-8,78,63,48,70,60,46,100,87,74,30.21,30.13,30.07,10,5,1,15,7,20,0.00,6,,117
2013-12-9,73,68,63,72,68,62,97,88,79,30.12,30.07,30.05,10,5,0,13,4,16,0.27,7,Fog-Rain,187
2013-12-10,68,55,42,66,50,34,100,81,61,30.35,30.17,30.03,10,7,0,28,12,36,0.06,5,Fog-Rain,326
2013-12-11,64,52,40,44,36,30,73,55,37,30.39,30.34,30.30,10,10,9,12,6,16,0.00,1,,15
2013-12-12,60,50,40,36,29,21,62,43,24,30.49,30.41,30.37,10,10,10,17,10,24,0.00,2,,4
2013-12-13,60,49,38,47,35,22,72,59,45,30.36,30.23,30.05,10,10,10,10,6,16,0.00,0,,71
2013-12-14,77,66,54,68,60,45,93,79,64,30.02,29.91,29.85,10,10,9,16,9,25,0.02,7,Rain,223
2013-12-15,60,48,36,54,39,31,89,75,60,30.29,30.14,29.94,10,10,6,24,13,31,T,5,Rain,345
2013-12-16,62,48,33,39,34,30,89,63,36,30.34,30.29,30.26,10,10,7,10,5,25,0.00,0,,350
2013-12-17,66,52,37,39,35,29,85,55,24,30.35,30.28,30.23,10,10,10,9,5,23,0.00,0,,293
2013-12-18,66,54,42,39,35,29,76,51,26,30.38,30.31,30.28,10,10,10,12,5,17,0.00,0,,12
2013-12-19,67,57,46,58,49,37,90,75,60,30.29,30.20,30.13,10,10,10,14,8,19,0.00,3,,89
2013-12-20,73,66,58,66,62,56,100,87,73,30.16,30.10,30.04,10,7,1,13,9,17,T,5,Rain,111
2013-12-21,75,71,66,70,68,64,93,90,87,30.02,29.96,29.91,7,5,2,22,14,29,0.03,8,Rain,146
2013-12-22,77,66,55,71,64,52,93,88,82,30.09,29.98,29.90,10,7,2,23,16,31,0.29,8,Rain-Thunderstorm,186
2013-12-23,57,49,40,54,47,32,93,82,70,30.37,30.21,30.10,10,9,2,23,12,29,0.44,8,Rain,350
2013-12-24,54,44,33,31,27,25,82,59,35,30.48,30.41,30.36,10,10,10,20,12,26,0.00,0,,357
2013-12-25,52,42,32,34,26,23,70,51,32,30.39,30.34,30.28,10,10,10,12,6,16,0.00,0,,2
2013-12-26,59,49,39,37,36,34,79,61,43,30.35,30.30,30.26,10,10,10,16,9,21,0.00,0,,5
2013-12-27,62,53,44,38,35,31,70,53,36,30.38,30.32,30.27,10,10,10,14,8,19,T,4,,18
2013-12-28,54,51,48,54,48,38,100,77,54,30.26,30.05,29.90,10,5,1,21,9,26,1.71,8,Rain,22
2013-12-29,61,53,44,48,46,42,93,80,67,30.13,30.02,29.92,10,8,2,17,8,23,0.00,6,,335
2013-12-30,59,50,41,49,44,40,96,76,55,30.28,30.19,30.12,10,9,2,9,2,12,T,1,,13
2013-12-31,52,49,45,46,41,38,89,80,71,30.42,30.34,30.29,10,10,9,15,8,19,T,4,Rain,4